This is the latest recevied weather packets stored in our database for station/object N7YET. If no packets are shown the sender has not sent any weather packets the latest 10 day(s).
| Time | Temp. | Humidity | Pressure | Rain* | Wind** | Luminosity | Snow |
|---|---|---|---|---|---|---|---|
| 1778258343 | 16.11° C | 33% | 1231.9 hPa | 0 mm | - | - | - |
| 1778257742 | 15.56° C | 33% | 1231.9 hPa | 0 mm | - | - | - |
| 1778257142 | 15.56° C | 34% | 1231.9 hPa | 0 mm | - | - | - |
| 1778256541 | 15° C | 35% | 1231.9 hPa | 0 mm | - | - | - |
| 1778255941 | 14.44° C | 38% | 1231.9 hPa | 0 mm | - | - | - |
| 1778255340 | 13.89° C | 41% | 1231.9 hPa | 0 mm | - | - | - |
| 1778254739 | 13.89° C | 46% | 1231.9 hPa | 0 mm | - | - | - |
| 1778254139 | 12.78° C | 48% | 1231.9 hPa | 0 mm | - | - | - |
| 1778253538 | 12.22° C | 49% | 1231.9 hPa | 0 mm | - | - | - |
| 1778252937 | 12.22° C | 50% | 1231.9 hPa | 0 mm | - | - | - |
| 1778252337 | 11.11° C | 53% | 1231.9 hPa | 0 mm | - | - | - |
| 1778251736 | 10° C | 56% | 1231.9 hPa | 0 mm | - | - | - |
| 1778251135 | 9.44° C | 57% | 1231.9 hPa | 0 mm | - | - | - |
| 1778250535 | 8.33° C | 59% | 1231.9 hPa | 0 mm | - | - | - |
| 1778249934 | 7.78° C | 60% | 1231.9 hPa | 0 mm | - | - | - |
| 1778249334 | 6.67° C | 59% | 1231.9 hPa | 0 mm | - | - | - |
| 1778248733 | 6.11° C | 60% | 1231.9 hPa | 0 mm | - | - | - |
| 1778248133 | 5.56° C | 60% | 1231.9 hPa | 0 mm | - | - | - |
| 1778247532 | 4.44° C | 61% | 1231.9 hPa | 0 mm | - | - | - |
| 1778246931 | 3.89° C | 61% | 1231.9 hPa | 0 mm | - | - | - |
| 1778246331 | 3.33° C | 61% | 1231.9 hPa | 0 mm | - | - | - |
| 1778245730 | 2.78° C | 61% | 1231.9 hPa | 0 mm | - | - | - |
| 1778245129 | 2.78° C | 62% | 1231.9 hPa | 0 mm | - | - | - |
| 1778244529 | 2.22° C | 62% | 1231.9 hPa | 0 mm | - | - | - |
| 1778243928 | 2.22° C | 62% | 1231.9 hPa | 0 mm | - | - | - |
* Rain latest hour (hover to see other rain measurements)
** Current wind speed in m/s (hover to see current wind gust speed)